Estación de Petorca
Ultimos registro cada 15 minutos 75
| N° | Estación | Fecha / Hora | Temperatura | Humedad | Lluvia | Velocidad | Dirección | Radiación | Presion |
| 75 | Petorca | 06-05-2026 18:30 | 14,2 | 95,8 | 0,2 | 1,5 | 223 | 0,6 | 987,8 |
| 74 | Petorca | 06-05-2026 18:15 | 14,4 | 95,7 | 0,2 | 2 | 236 | 0,6 | 987,8 |
| 73 | Petorca | 06-05-2026 18:00 | 14,7 | 94,8 | 0 | 1 | 241 | 0,6 | 987,7 |
| 72 | Petorca | 06-05-2026 17:45 | 14,9 | 93,7 | 0 | 2 | 239 | 1,9 | 987,8 |
| 71 | Petorca | 06-05-2026 17:30 | 15,7 | 88,8 | 0 | 1,5 | 227 | 4,4 | 987,7 |
| 70 | Petorca | 06-05-2026 17:15 | 16,1 | 85,2 | 0 | 0,5 | 241 | 14,4 | 987,7 |
| 69 | Petorca | 06-05-2026 17:00 | 16,2 | 84,6 | 0 | 0,5 | 244 | 36,9 | 987,5 |
| 68 | Petorca | 06-05-2026 16:45 | 16,2 | 84,7 | 0 | 0,5 | 248 | 31,9 | 987,7 |
| 67 | Petorca | 06-05-2026 16:30 | 16,5 | 83,5 | 0 | 1 | 246 | 36,9 | 987,9 |
| 66 | Petorca | 06-05-2026 16:15 | 16,7 | 82,4 | 0 | 1 | 243 | 63,1 | 987,9 |
| 65 | Petorca | 06-05-2026 16:00 | 16,8 | 82,9 | 0 | 1,5 | 246 | 71,9 | 987,9 |
| 64 | Petorca | 06-05-2026 15:45 | 17,1 | 81,4 | 0 | 1 | 243 | 90,6 | 987,8 |
| 63 | Petorca | 06-05-2026 15:30 | 17,7 | 78,8 | 0 | 1 | 250 | 106,9 | 987,7 |
| 62 | Petorca | 06-05-2026 15:15 | 18 | 77 | 0 | 1 | 246 | 126,9 | 987,8 |
| 61 | Petorca | 06-05-2026 15:00 | 18,3 | 75,3 | 0 | 1 | 247 | 115,6 | 987,6 |
| 60 | Petorca | 06-05-2026 14:45 | 18,5 | 73,9 | 0 | 1 | 251 | 135,6 | 987,3 |
| 59 | Petorca | 06-05-2026 14:30 | 18,7 | 71,5 | 0 | 1 | 248 | 133,1 | 987 |
| 58 | Petorca | 06-05-2026 14:15 | 19,6 | 65,7 | 0 | 2 | 222 | 186,9 | 987,1 |
| 57 | Petorca | 06-05-2026 14:00 | 19,9 | 63,3 | 0 | 2 | 225 | 143,1 | 987,5 |
| 56 | Petorca | 06-05-2026 13:45 | 19,9 | 62,3 | 0 | 3 | 225 | 260,6 | 987,4 |
| 55 | Petorca | 06-05-2026 13:30 | 19,8 | 61,5 | 0 | 3 | 233 | 331,9 | 987,7 |
| 54 | Petorca | 06-05-2026 13:15 | 20,3 | 59,3 | 0 | 4 | 226 | 314,4 | 987,5 |
| 53 | Petorca | 06-05-2026 13:00 | 20,3 | 58 | 0 | 3,5 | 236 | 431,9 | 987,4 |
| 52 | Petorca | 06-05-2026 12:45 | 19,4 | 59,2 | 0 | 3,5 | 239 | 290,6 | 987,1 |
| 51 | Petorca | 06-05-2026 12:30 | 20 | 56,5 | 0 | 3,5 | 237 | 466,9 | 987 |
| 50 | Petorca | 06-05-2026 12:15 | 20 | 56,9 | 0 | 2,5 | 237 | 368,1 | 987,1 |
| 49 | Petorca | 06-05-2026 12:00 | 19,6 | 57,6 | 0 | 3 | 229 | 519,4 | 987,1 |
| 48 | Petorca | 06-05-2026 11:45 | 19,9 | 57,8 | 0 | 2 | 234 | 445,6 | 986,9 |
| 47 | Petorca | 06-05-2026 11:30 | 19,7 | 59,1 | 0 | 2 | 223 | 443,1 | 987,1 |
| 46 | Petorca | 06-05-2026 11:15 | 19,7 | 57,6 | 0 | 1 | 225 | 283,1 | 986,8 |
| 45 | Petorca | 06-05-2026 11:00 | 20,3 | 54,8 | 0 | 0 | 337 | 344,4 | 986,6 |
| 44 | Petorca | 06-05-2026 10:45 | 19,2 | 58,3 | 0 | 0 | 0 | 428,1 | 986,8 |
| 43 | Petorca | 06-05-2026 10:30 | 19,1 | 60,4 | 0 | 0 | 258 | 340,6 | 987,1 |
| 42 | Petorca | 06-05-2026 10:15 | 18,6 | 61,7 | 0 | 0 | 338 | 499,4 | 987 |
| 41 | Petorca | 06-05-2026 10:00 | 16,3 | 69,4 | 0 | 0 | 208 | 474,4 | 987 |
| 40 | Petorca | 06-05-2026 09:45 | 17 | 66,8 | 0 | 0 | 348 | 426,9 | 986,9 |
| 39 | Petorca | 06-05-2026 09:30 | 14,7 | 76,2 | 0 | 0 | 354 | 384,4 | 987,1 |
| 38 | Petorca | 06-05-2026 09:15 | 13,6 | 82,8 | 0 | 0 | 161 | 330,6 | 987,4 |
| 37 | Petorca | 06-05-2026 09:00 | 11,9 | 93,8 | 0 | 0 | 357 | 279,4 | 987,4 |
| 36 | Petorca | 06-05-2026 08:45 | 10,4 | 96,3 | 0 | 0 | 59 | 234,4 | 987,4 |
| 35 | Petorca | 06-05-2026 08:30 | 8,8 | 97,9 | 0 | 0 | 18 | 191,9 | 987,4 |
| 34 | Petorca | 06-05-2026 08:15 | 7,3 | 97,9 | 0 | 0 | 27 | 16,9 | 987,4 |
| 33 | Petorca | 06-05-2026 08:00 | 7 | 97,9 | 0 | 0 | 327 | 11,9 | 987,1 |
| 32 | Petorca | 06-05-2026 07:45 | 6,6 | 97,8 | 0 | 0 | 18 | 8,1 | 987,1 |
| 31 | Petorca | 06-05-2026 07:30 | 6,6 | 97,6 | 0 | 0 | 21 | 3,1 | 987,1 |
| 30 | Petorca | 06-05-2026 07:15 | 6,4 | 97,7 | 0 | 0 | 17 | 1,9 | 986,9 |
| 29 | Petorca | 06-05-2026 07:00 | 6,1 | 97,3 | 0 | 0 | 31 | 0,6 | 986,8 |
| 28 | Petorca | 06-05-2026 06:45 | 6,7 | 97,5 | 0 | 0 | 31 | 0,6 | 986,5 |
| 27 | Petorca | 06-05-2026 06:30 | 7,6 | 97,6 | 0 | 0 | 32 | 0,6 | 986,2 |
| 26 | Petorca | 06-05-2026 06:15 | 6,7 | 97,5 | 0 | 0 | 21 | 0,6 | 986 |
| 25 | Petorca | 06-05-2026 06:00 | 6,5 | 97,4 | 0 | 0 | 20 | 0,6 | 986 |
| 24 | Petorca | 06-05-2026 05:45 | 6,2 | 97,2 | 0 | 0 | 28 | 0,6 | 985,9 |
| 23 | Petorca | 06-05-2026 05:30 | 6,4 | 97,2 | 0 | 0 | 29 | 0,6 | 985,7 |
| 22 | Petorca | 06-05-2026 05:15 | 6,7 | 97,1 | 0 | 0 | 6 | 0,6 | 985,5 |
| 21 | Petorca | 06-05-2026 05:00 | 7 | 97,3 | 0 | 0 | 323 | 0,6 | 985,3 |
| 20 | Petorca | 06-05-2026 04:45 | 7,2 | 96,8 | 0 | 0 | 6 | 0,6 | 985,2 |
| 19 | Petorca | 06-05-2026 04:30 | 7,8 | 97 | 0 | 0 | 35 | 0,6 | 985,3 |
| 18 | Petorca | 06-05-2026 04:15 | 7,4 | 97,1 | 0 | 0 | 27 | 0,6 | 985,1 |
| 17 | Petorca | 06-05-2026 04:00 | 7,1 | 97,2 | 0 | 0 | 13 | 0,6 | 984,9 |
| 16 | Petorca | 06-05-2026 03:45 | 6,9 | 96,9 | 0 | 0 | 25 | 0,6 | 984,4 |
| 15 | Petorca | 06-05-2026 03:30 | 7,2 | 96,9 | 0 | 0 | 20 | 0,6 | 984,1 |
| 14 | Petorca | 06-05-2026 03:15 | 7,4 | 96,8 | 0 | 0 | 338 | 0,6 | 984,1 |
| 13 | Petorca | 06-05-2026 03:00 | 7,6 | 97 | 0 | 0 | 281 | 0,6 | 983,9 |
| 12 | Petorca | 06-05-2026 02:45 | 7,5 | 96,7 | 0 | 0 | 25 | 0,6 | 984,1 |
| 11 | Petorca | 06-05-2026 02:30 | 8,2 | 96,6 | 0 | 0 | 340 | 0,6 | 984,6 |
| 10 | Petorca | 06-05-2026 02:15 | 7,4 | 96,1 | 0 | 0 | 20 | 0,6 | 984,6 |
| 9 | Petorca | 06-05-2026 02:00 | 7,7 | 96,3 | 0 | 0 | 7 | 0,6 | 984,4 |
| 8 | Petorca | 06-05-2026 01:45 | 7,4 | 95,9 | 0 | 0 | 38 | 0,6 | 984,7 |
| 7 | Petorca | 06-05-2026 01:30 | 7,8 | 95,8 | 0 | 0 | 24 | 0,6 | 984,9 |
| 6 | Petorca | 06-05-2026 01:15 | 7,7 | 95,7 | 0 | 0 | 314 | 0,6 | 984,9 |
| 5 | Petorca | 06-05-2026 01:00 | 8,2 | 95,4 | 0 | 0 | 331 | 0,6 | 985,1 |
| 4 | Petorca | 06-05-2026 00:45 | 8,6 | 95,1 | 0 | 0 | 219 | 0,6 | 985,2 |
| 3 | Petorca | 06-05-2026 00:30 | 9,3 | 95 | 0 | 0 | 250 | 0,6 | 985,2 |
| 2 | Petorca | 06-05-2026 00:15 | 9,3 | 94,8 | 0 | 0 | 3 | 0,6 | 985,2 |
| 1 | Petorca | 06-05-2026 00:00 | 9,7 | 95,3 | 0 | 0,5 | 14 | 0,6 | 985,2 |